<?xml version="1.0" encoding="UTF-8"?>
<gpx
version="1.1"
creator="Kashmir3D 9.350 - http://www.kashmir3d.com"
xmlns:xsi="http://www.w3.org/2001/XMLSchema-instance"
xmlns="http://www.topografix.com/GPX/1/1"
xmlns:kashmir3d="http://www.kashmir3d.com/namespace/kashmir3d"
xsi:schemaLocation="http://www.topografix.com/GPX/1/1 http://www.topografix.com/GPX/1/1/gpx.xsd
	http://www.kashmir3d.com/namespace/kashmir3d http://www.kashmir3d.com/namespace/kashmir3d.xsd">
<trk>
 <name>GONGENSAN.KML(権現山)</name>
 <number>1</number>
 <extensions>
 <kashmir3d:line_color>0000ff</kashmir3d:line_color>
 <kashmir3d:line_size>3</kashmir3d:line_size>
 <kashmir3d:line_style>1</kashmir3d:line_style>
 <kashmir3d:icon>901001</kashmir3d:icon>
 </extensions>
<trkseg>
<trkpt lat="35.178308" lon="135.881074">
 <ele>428.2</ele>
 <time>2020-03-24T12:53:18Z</time>
</trkpt>
<trkpt lat="35.178480" lon="135.880945">
 <ele>429.2</ele>
 <time>2020-03-24T12:53:19Z</time>
</trkpt>
<trkpt lat="35.178574" lon="135.880827">
 <ele>432.7</ele>
 <time>2020-03-24T12:53:19Z</time>
</trkpt>
<trkpt lat="35.178703" lon="135.880688">
 <ele>435.6</ele>
 <time>2020-03-24T12:53:19Z</time>
</trkpt>
<trkpt lat="35.178780" lon="135.880570">
 <ele>437.9</ele>
 <time>2020-03-24T12:53:19Z</time>
</trkpt>
<trkpt lat="35.178883" lon="135.880430">
 <ele>439.9</ele>
 <time>2020-03-24T12:53:19Z</time>
</trkpt>
<trkpt lat="35.178943" lon="135.880323">
 <ele>441.4</ele>
 <time>2020-03-24T12:53:19Z</time>
</trkpt>
<trkpt lat="35.179003" lon="135.880162">
 <ele>444.1</ele>
 <time>2020-03-24T12:53:19Z</time>
</trkpt>
<trkpt lat="35.179038" lon="135.880055">
 <ele>445.7</ele>
 <time>2020-03-24T12:53:20Z</time>
</trkpt>
<trkpt lat="35.179046" lon="135.879958">
 <ele>446.7</ele>
 <time>2020-03-24T12:53:20Z</time>
</trkpt>
<trkpt lat="35.179003" lon="135.879894">
 <ele>447.1</ele>
 <time>2020-03-24T12:53:20Z</time>
</trkpt>
<trkpt lat="35.178943" lon="135.879883">
 <ele>447.6</ele>
 <time>2020-03-24T12:53:20Z</time>
</trkpt>
<trkpt lat="35.178892" lon="135.879894">
 <ele>447.7</ele>
 <time>2020-03-24T12:53:20Z</time>
</trkpt>
<trkpt lat="35.178857" lon="135.879947">
 <ele>448.6</ele>
 <time>2020-03-24T12:53:20Z</time>
</trkpt>
<trkpt lat="35.178814" lon="135.880022">
 <ele>449</ele>
 <time>2020-03-24T12:53:20Z</time>
</trkpt>
<trkpt lat="35.178780" lon="135.880098">
 <ele>449.4</ele>
 <time>2020-03-24T12:53:20Z</time>
</trkpt>
<trkpt lat="35.178746" lon="135.880183">
 <ele>450.4</ele>
 <time>2020-03-24T12:53:21Z</time>
</trkpt>
<trkpt lat="35.178677" lon="135.880237">
 <ele>451.2</ele>
 <time>2020-03-24T12:53:21Z</time>
</trkpt>
<trkpt lat="35.178617" lon="135.880258">
 <ele>451.5</ele>
 <time>2020-03-24T12:53:21Z</time>
</trkpt>
<trkpt lat="35.178557" lon="135.880226">
 <ele>453.2</ele>
 <time>2020-03-24T12:53:21Z</time>
</trkpt>
<trkpt lat="35.178557" lon="135.880140">
 <ele>454.6</ele>
 <time>2020-03-24T12:53:21Z</time>
</trkpt>
<trkpt lat="35.178634" lon="135.880055">
 <ele>456.1</ele>
 <time>2020-03-24T12:53:21Z</time>
</trkpt>
<trkpt lat="35.178694" lon="135.879969">
 <ele>457.1</ele>
 <time>2020-03-24T12:53:21Z</time>
</trkpt>
<trkpt lat="35.178746" lon="135.879840">
 <ele>459</ele>
 <time>2020-03-24T12:53:21Z</time>
</trkpt>
<trkpt lat="35.178806" lon="135.879711">
 <ele>460.5</ele>
 <time>2020-03-24T12:53:22Z</time>
</trkpt>
<trkpt lat="35.178840" lon="135.879572">
 <ele>462.2</ele>
 <time>2020-03-24T12:53:22Z</time>
</trkpt>
<trkpt lat="35.178883" lon="135.879411">
 <ele>464.6</ele>
 <time>2020-03-24T12:53:22Z</time>
</trkpt>
<trkpt lat="35.178917" lon="135.879314">
 <ele>466</ele>
 <time>2020-03-24T12:53:22Z</time>
</trkpt>
<trkpt lat="35.178960" lon="135.879228">
 <ele>466.9</ele>
 <time>2020-03-24T12:53:22Z</time>
</trkpt>
<trkpt lat="35.179029" lon="135.879100">
 <ele>469.3</ele>
 <time>2020-03-24T12:53:22Z</time>
</trkpt>
<trkpt lat="35.179132" lon="135.878907">
 <ele>472</ele>
 <time>2020-03-24T12:53:22Z</time>
</trkpt>
<trkpt lat="35.179244" lon="135.878735">
 <ele>474.5</ele>
 <time>2020-03-24T12:53:23Z</time>
</trkpt>
<trkpt lat="35.179355" lon="135.878585">
 <ele>474.3</ele>
 <time>2020-03-24T12:53:23Z</time>
</trkpt>
<trkpt lat="35.179441" lon="135.878392">
 <ele>475.8</ele>
 <time>2020-03-24T12:53:23Z</time>
</trkpt>
<trkpt lat="35.179527" lon="135.878252">
 <ele>476.6</ele>
 <time>2020-03-24T12:53:23Z</time>
</trkpt>
<trkpt lat="35.179587" lon="135.878166">
 <ele>477.5</ele>
 <time>2020-03-24T12:53:23Z</time>
</trkpt>
<trkpt lat="35.179664" lon="135.878016">
 <ele>478.1</ele>
 <time>2020-03-24T12:53:23Z</time>
</trkpt>
<trkpt lat="35.179698" lon="135.877866">
 <ele>479.6</ele>
 <time>2020-03-24T12:53:23Z</time>
</trkpt>
<trkpt lat="35.179733" lon="135.877705">
 <ele>480.4</ele>
 <time>2020-03-24T12:53:23Z</time>
</trkpt>
<trkpt lat="35.179776" lon="135.877565">
 <ele>481.5</ele>
 <time>2020-03-24T12:53:24Z</time>
</trkpt>
<trkpt lat="35.179844" lon="135.877415">
 <ele>482.2</ele>
 <time>2020-03-24T12:53:24Z</time>
</trkpt>
<trkpt lat="35.179947" lon="135.877276">
 <ele>483.5</ele>
 <time>2020-03-24T12:53:24Z</time>
</trkpt>
<trkpt lat="35.180093" lon="135.877201">
 <ele>484.6</ele>
 <time>2020-03-24T12:53:24Z</time>
</trkpt>
<trkpt lat="35.180188" lon="135.877190">
 <ele>485</ele>
 <time>2020-03-24T12:53:24Z</time>
</trkpt>
<trkpt lat="35.180239" lon="135.877244">
 <ele>486.3</ele>
 <time>2020-03-24T12:53:24Z</time>
</trkpt>
<trkpt lat="35.180316" lon="135.877319">
 <ele>488</ele>
 <time>2020-03-24T12:53:24Z</time>
</trkpt>
<trkpt lat="35.180394" lon="135.877426">
 <ele>488.4</ele>
 <time>2020-03-24T12:53:25Z</time>
</trkpt>
<trkpt lat="35.180471" lon="135.877437">
 <ele>489.6</ele>
 <time>2020-03-24T12:53:25Z</time>
</trkpt>
<trkpt lat="35.180600" lon="135.877426">
 <ele>494.4</ele>
 <time>2020-03-24T12:53:25Z</time>
</trkpt>
<trkpt lat="35.180677" lon="135.877405">
 <ele>497.1</ele>
 <time>2020-03-24T12:53:25Z</time>
</trkpt>
<trkpt lat="35.180788" lon="135.877340">
 <ele>500.9</ele>
 <time>2020-03-24T12:53:25Z</time>
</trkpt>
<trkpt lat="35.180900" lon="135.877265">
 <ele>506.1</ele>
 <time>2020-03-24T12:53:25Z</time>
</trkpt>
<trkpt lat="35.180960" lon="135.877169">
 <ele>510.9</ele>
 <time>2020-03-24T12:53:25Z</time>
</trkpt>
<trkpt lat="35.181063" lon="135.877093">
 <ele>513</ele>
 <time>2020-03-24T12:53:25Z</time>
</trkpt>
<trkpt lat="35.181140" lon="135.877018">
 <ele>513.6</ele>
 <time>2020-03-24T12:53:26Z</time>
</trkpt>
<trkpt lat="35.181200" lon="135.876954">
 <ele>517.1</ele>
 <time>2020-03-24T12:53:26Z</time>
</trkpt>
<trkpt lat="35.181286" lon="135.876900">
 <ele>519.1</ele>
 <time>2020-03-24T12:53:26Z</time>
</trkpt>
<trkpt lat="35.181381" lon="135.876825">
 <ele>522.2</ele>
 <time>2020-03-24T12:53:26Z</time>
</trkpt>
<trkpt lat="35.181432" lon="135.876729">
 <ele>525.5</ele>
 <time>2020-03-24T12:53:26Z</time>
</trkpt>
<trkpt lat="35.181355" lon="135.876654">
 <ele>529</ele>
 <time>2020-03-24T12:53:26Z</time>
</trkpt>
<trkpt lat="35.181303" lon="135.876578">
 <ele>530.4</ele>
 <time>2020-03-24T12:53:26Z</time>
</trkpt>
<trkpt lat="35.181312" lon="135.876503">
 <ele>531.5</ele>
 <time>2020-03-24T12:53:26Z</time>
</trkpt>
<trkpt lat="35.181346" lon="135.876439">
 <ele>534.5</ele>
 <time>2020-03-24T12:53:27Z</time>
</trkpt>
<trkpt lat="35.181406" lon="135.876439">
 <ele>536.2</ele>
 <time>2020-03-24T12:53:27Z</time>
</trkpt>
<trkpt lat="35.181492" lon="135.876439">
 <ele>538.1</ele>
 <time>2020-03-24T12:53:27Z</time>
</trkpt>
<trkpt lat="35.181587" lon="135.876407">
 <ele>541.2</ele>
 <time>2020-03-24T12:53:27Z</time>
</trkpt>
<trkpt lat="35.181673" lon="135.876385">
 <ele>542.9</ele>
 <time>2020-03-24T12:53:27Z</time>
</trkpt>
<trkpt lat="35.181758" lon="135.876353">
 <ele>547.7</ele>
 <time>2020-03-24T12:53:27Z</time>
</trkpt>
<trkpt lat="35.181836" lon="135.876332">
 <ele>548.8</ele>
 <time>2020-03-24T12:53:27Z</time>
</trkpt>
<trkpt lat="35.181904" lon="135.876310">
 <ele>552.9</ele>
 <time>2020-03-24T12:53:28Z</time>
</trkpt>
<trkpt lat="35.181973" lon="135.876257">
 <ele>555.8</ele>
 <time>2020-03-24T12:53:28Z</time>
</trkpt>
<trkpt lat="35.182016" lon="135.876171">
 <ele>561.7</ele>
 <time>2020-03-24T12:53:28Z</time>
</trkpt>
<trkpt lat="35.182076" lon="135.876128">
 <ele>562.9</ele>
 <time>2020-03-24T12:53:28Z</time>
</trkpt>
<trkpt lat="35.182119" lon="135.876096">
 <ele>564.8</ele>
 <time>2020-03-24T12:53:28Z</time>
</trkpt>
<trkpt lat="35.182222" lon="135.876021">
 <ele>568.1</ele>
 <time>2020-03-24T12:53:28Z</time>
</trkpt>
<trkpt lat="35.182316" lon="135.875967">
 <ele>568.7</ele>
 <time>2020-03-24T12:53:28Z</time>
</trkpt>
<trkpt lat="35.182436" lon="135.875903">
 <ele>569.4</ele>
 <time>2020-03-24T12:53:28Z</time>
</trkpt>
<trkpt lat="35.182539" lon="135.875849">
 <ele>572.1</ele>
 <time>2020-03-24T12:53:29Z</time>
</trkpt>
<trkpt lat="35.182660" lon="135.875827">
 <ele>570.2</ele>
 <time>2020-03-24T12:53:29Z</time>
</trkpt>
<trkpt lat="35.182728" lon="135.875763">
 <ele>573.9</ele>
 <time>2020-03-24T12:53:29Z</time>
</trkpt>
<trkpt lat="35.182745" lon="135.875709">
 <ele>574.8</ele>
 <time>2020-03-24T12:53:29Z</time>
</trkpt>
<trkpt lat="35.182754" lon="135.875602">
 <ele>577.9</ele>
 <time>2020-03-24T12:53:29Z</time>
</trkpt>
<trkpt lat="35.182797" lon="135.875548">
 <ele>581.2</ele>
 <time>2020-03-24T12:53:29Z</time>
</trkpt>
<trkpt lat="35.182866" lon="135.875538">
 <ele>585.1</ele>
 <time>2020-03-24T12:53:29Z</time>
</trkpt>
<trkpt lat="35.182917" lon="135.875581">
 <ele>586.5</ele>
 <time>2020-03-24T12:53:30Z</time>
</trkpt>
<trkpt lat="35.182960" lon="135.875581">
 <ele>587.6</ele>
 <time>2020-03-24T12:53:30Z</time>
</trkpt>
<trkpt lat="35.182994" lon="135.875527">
 <ele>589.9</ele>
 <time>2020-03-24T12:53:30Z</time>
</trkpt>
<trkpt lat="35.182994" lon="135.875420">
 <ele>593.5</ele>
 <time>2020-03-24T12:53:30Z</time>
</trkpt>
<trkpt lat="35.182994" lon="135.875323">
 <ele>596.4</ele>
 <time>2020-03-24T12:53:30Z</time>
</trkpt>
<trkpt lat="35.182960" lon="135.875227">
 <ele>597.7</ele>
 <time>2020-03-24T12:53:30Z</time>
</trkpt>
<trkpt lat="35.182909" lon="135.875152">
 <ele>599.8</ele>
 <time>2020-03-24T12:53:30Z</time>
</trkpt>
<trkpt lat="35.182874" lon="135.875076">
 <ele>603</ele>
 <time>2020-03-24T12:53:30Z</time>
</trkpt>
<trkpt lat="35.182857" lon="135.874991">
 <ele>598.5</ele>
 <time>2020-03-24T12:53:31Z</time>
</trkpt>
<trkpt lat="35.182883" lon="135.874926">
 <ele>599.7</ele>
 <time>2020-03-24T12:53:31Z</time>
</trkpt>
<trkpt lat="35.182951" lon="135.874883">
 <ele>602.2</ele>
 <time>2020-03-24T12:53:31Z</time>
</trkpt>
<trkpt lat="35.182969" lon="135.874797">
 <ele>606.1</ele>
 <time>2020-03-24T12:53:31Z</time>
</trkpt>
<trkpt lat="35.182917" lon="135.874722">
 <ele>606.4</ele>
 <time>2020-03-24T12:53:31Z</time>
</trkpt>
<trkpt lat="35.182866" lon="135.874669">
 <ele>608.4</ele>
 <time>2020-03-24T12:53:31Z</time>
</trkpt>
<trkpt lat="35.182806" lon="135.874679">
 <ele>611</ele>
 <time>2020-03-24T12:53:31Z</time>
</trkpt>
<trkpt lat="35.182703" lon="135.874733">
 <ele>614</ele>
 <time>2020-03-24T12:53:31Z</time>
</trkpt>
<trkpt lat="35.182591" lon="135.874808">
 <ele>616.6</ele>
 <time>2020-03-24T12:53:31Z</time>
</trkpt>
<trkpt lat="35.182454" lon="135.874873">
 <ele>618.9</ele>
 <time>2020-03-24T12:53:31Z</time>
</trkpt>
<trkpt lat="35.182325" lon="135.874926">
 <ele>621.5</ele>
 <time>2020-03-24T12:53:32Z</time>
</trkpt>
<trkpt lat="35.182230" lon="135.874948">
 <ele>623.2</ele>
 <time>2020-03-24T12:53:32Z</time>
</trkpt>
<trkpt lat="35.182162" lon="135.874905">
 <ele>627</ele>
 <time>2020-03-24T12:53:32Z</time>
</trkpt>
<trkpt lat="35.182102" lon="135.874830">
 <ele>628.8</ele>
 <time>2020-03-24T12:53:32Z</time>
</trkpt>
<trkpt lat="35.182196" lon="135.874755">
 <ele>631.7</ele>
 <time>2020-03-24T12:53:32Z</time>
</trkpt>
<trkpt lat="35.182282" lon="135.874669">
 <ele>634</ele>
 <time>2020-03-24T12:53:32Z</time>
</trkpt>
<trkpt lat="35.182299" lon="135.874572">
 <ele>636.3</ele>
 <time>2020-03-24T12:53:32Z</time>
</trkpt>
<trkpt lat="35.182368" lon="135.874497">
 <ele>638</ele>
 <time>2020-03-24T12:53:32Z</time>
</trkpt>
<trkpt lat="35.182419" lon="135.874422">
 <ele>641</ele>
 <time>2020-03-24T12:53:32Z</time>
</trkpt>
<trkpt lat="35.182376" lon="135.874325">
 <ele>645.2</ele>
 <time>2020-03-24T12:53:32Z</time>
</trkpt>
<trkpt lat="35.182368" lon="135.874272">
 <ele>646.8</ele>
 <time>2020-03-24T12:53:33Z</time>
</trkpt>
<trkpt lat="35.182411" lon="135.874186">
 <ele>649.4</ele>
 <time>2020-03-24T12:53:33Z</time>
</trkpt>
<trkpt lat="35.182471" lon="135.874143">
 <ele>650.2</ele>
 <time>2020-03-24T12:53:33Z</time>
</trkpt>
<trkpt lat="35.182497" lon="135.874079">
 <ele>653.4</ele>
 <time>2020-03-24T12:53:33Z</time>
</trkpt>
<trkpt lat="35.182548" lon="135.874025">
 <ele>654.1</ele>
 <time>2020-03-24T12:53:33Z</time>
</trkpt>
<trkpt lat="35.182600" lon="135.873928">
 <ele>658.4</ele>
 <time>2020-03-24T12:53:33Z</time>
</trkpt>
<trkpt lat="35.182634" lon="135.873896">
 <ele>658.2</ele>
 <time>2020-03-24T12:53:33Z</time>
</trkpt>
<trkpt lat="35.182608" lon="135.873789">
 <ele>663.6</ele>
 <time>2020-03-24T12:53:33Z</time>
</trkpt>
<trkpt lat="35.182539" lon="135.873767">
 <ele>663.7</ele>
 <time>2020-03-24T12:53:33Z</time>
</trkpt>
<trkpt lat="35.182497" lon="135.873714">
 <ele>664.3</ele>
 <time>2020-03-24T12:53:33Z</time>
</trkpt>
<trkpt lat="35.182497" lon="135.873628">
 <ele>666.4</ele>
 <time>2020-03-24T12:53:34Z</time>
</trkpt>
<trkpt lat="35.182539" lon="135.873574">
 <ele>670.6</ele>
 <time>2020-03-24T12:53:34Z</time>
</trkpt>
<trkpt lat="35.182634" lon="135.873574">
 <ele>671.3</ele>
 <time>2020-03-24T12:53:34Z</time>
</trkpt>
<trkpt lat="35.182677" lon="135.873521">
 <ele>672.3</ele>
 <time>2020-03-24T12:53:34Z</time>
</trkpt>
<trkpt lat="35.182720" lon="135.873403">
 <ele>673.9</ele>
 <time>2020-03-24T12:53:34Z</time>
</trkpt>
<trkpt lat="35.182763" lon="135.873306">
 <ele>674.8</ele>
 <time>2020-03-24T12:53:34Z</time>
</trkpt>
<trkpt lat="35.182797" lon="135.873220">
 <ele>675.6</ele>
 <time>2020-03-24T12:53:34Z</time>
</trkpt>
<trkpt lat="35.182883" lon="135.873156">
 <ele>676.3</ele>
 <time>2020-03-24T12:53:34Z</time>
</trkpt>
<trkpt lat="35.183003" lon="135.873134">
 <ele>682.3</ele>
 <time>2020-03-24T12:53:34Z</time>
</trkpt>
<trkpt lat="35.183149" lon="135.873102">
 <ele>687.8</ele>
 <time>2020-03-24T12:53:34Z</time>
</trkpt>
<trkpt lat="35.183218" lon="135.873102">
 <ele>689.2</ele>
 <time>2020-03-24T12:53:35Z</time>
</trkpt>
<trkpt lat="35.183295" lon="135.873081">
 <ele>690.1</ele>
 <time>2020-03-24T12:53:35Z</time>
</trkpt>
<trkpt lat="35.183381" lon="135.873081">
 <ele>690.9</ele>
 <time>2020-03-24T12:53:35Z</time>
</trkpt>
<trkpt lat="35.183475" lon="135.873049">
 <ele>694.4</ele>
 <time>2020-03-24T12:53:35Z</time>
</trkpt>
<trkpt lat="35.183544" lon="135.873027">
 <ele>694.3</ele>
 <time>2020-03-24T12:53:35Z</time>
</trkpt>
<trkpt lat="35.183655" lon="135.872974">
 <ele>698.8</ele>
 <time>2020-03-24T12:53:35Z</time>
</trkpt>
<trkpt lat="35.183878" lon="135.872845">
 <ele>704.5</ele>
 <time>2020-03-24T12:53:35Z</time>
</trkpt>
<trkpt lat="35.184016" lon="135.872780">
 <ele>704.5</ele>
 <time>2020-03-24T12:53:35Z</time>
</trkpt>
<trkpt lat="35.184136" lon="135.872716">
 <ele>707.4</ele>
 <time>2020-03-24T12:53:35Z</time>
</trkpt>
<trkpt lat="35.184230" lon="135.872587">
 <ele>709.8</ele>
 <time>2020-03-24T12:53:35Z</time>
</trkpt>
<trkpt lat="35.184308" lon="135.872523">
 <ele>710.5</ele>
 <time>2020-03-24T12:53:36Z</time>
</trkpt>
<trkpt lat="35.184402" lon="135.872491">
 <ele>713.7</ele>
 <time>2020-03-24T12:53:36Z</time>
</trkpt>
<trkpt lat="35.184514" lon="135.872491">
 <ele>715.2</ele>
 <time>2020-03-24T12:53:36Z</time>
</trkpt>
<trkpt lat="35.184617" lon="135.872501">
 <ele>717.4</ele>
 <time>2020-03-24T12:53:36Z</time>
</trkpt>
<trkpt lat="35.184702" lon="135.872523">
 <ele>718.6</ele>
 <time>2020-03-24T12:53:36Z</time>
</trkpt>
<trkpt lat="35.184831" lon="135.872587">
 <ele>721.7</ele>
 <time>2020-03-24T12:53:36Z</time>
</trkpt>
<trkpt lat="35.184951" lon="135.872652">
 <ele>722.8</ele>
 <time>2020-03-24T12:53:36Z</time>
</trkpt>
<trkpt lat="35.185071" lon="135.872652">
 <ele>725.6</ele>
 <time>2020-03-24T12:53:36Z</time>
</trkpt>
<trkpt lat="35.185183" lon="135.872673">
 <ele>729.7</ele>
 <time>2020-03-24T12:53:36Z</time>
</trkpt>
<trkpt lat="35.185286" lon="135.872609">
 <ele>734.8</ele>
 <time>2020-03-24T12:53:36Z</time>
</trkpt>
<trkpt lat="35.185415" lon="135.872523">
 <ele>739.8</ele>
 <time>2020-03-24T12:53:37Z</time>
</trkpt>
<trkpt lat="35.185492" lon="135.872459">
 <ele>745.8</ele>
 <time>2020-03-24T12:53:37Z</time>
</trkpt>
<trkpt lat="35.185621" lon="135.872341">
 <ele>750.2</ele>
 <time>2020-03-24T12:53:37Z</time>
</trkpt>
<trkpt lat="35.185689" lon="135.872265">
 <ele>751.2</ele>
 <time>2020-03-24T12:53:37Z</time>
</trkpt>
<trkpt lat="35.185767" lon="135.872265">
 <ele>753.2</ele>
 <time>2020-03-24T12:53:37Z</time>
</trkpt>
<trkpt lat="35.185904" lon="135.872244">
 <ele>753.7</ele>
 <time>2020-03-24T12:53:37Z</time>
</trkpt>
<trkpt lat="35.186016" lon="135.872287">
 <ele>755.6</ele>
 <time>2020-03-24T12:53:37Z</time>
</trkpt>
<trkpt lat="35.186213" lon="135.872308">
 <ele>761.1</ele>
 <time>2020-03-24T12:53:37Z</time>
</trkpt>
<trkpt lat="35.186307" lon="135.872319">
 <ele>763.6</ele>
 <time>2020-03-24T12:53:37Z</time>
</trkpt>
<trkpt lat="35.186462" lon="135.872373">
 <ele>767.6</ele>
 <time>2020-03-24T12:53:38Z</time>
</trkpt>
<trkpt lat="35.186599" lon="135.872383">
 <ele>768.8</ele>
 <time>2020-03-24T12:53:38Z</time>
</trkpt>
<trkpt lat="35.186711" lon="135.872405">
 <ele>769.9</ele>
 <time>2020-03-24T12:53:38Z</time>
</trkpt>
<trkpt lat="35.186831" lon="135.872426">
 <ele>769.3</ele>
 <time>2020-03-24T12:53:38Z</time>
</trkpt>
<trkpt lat="35.186968" lon="135.872469">
 <ele>776.3</ele>
 <time>2020-03-24T12:53:38Z</time>
</trkpt>
<trkpt lat="35.187071" lon="135.872512">
 <ele>781.4</ele>
 <time>2020-03-24T12:53:38Z</time>
</trkpt>
<trkpt lat="35.187209" lon="135.872544">
 <ele>786.4</ele>
 <time>2020-03-24T12:53:38Z</time>
</trkpt>
<trkpt lat="35.187277" lon="135.872555">
 <ele>788.6</ele>
 <time>2020-03-24T12:53:38Z</time>
</trkpt>
<trkpt lat="35.187355" lon="135.872577">
 <ele>792.5</ele>
 <time>2020-03-24T12:53:38Z</time>
</trkpt>
<trkpt lat="35.187406" lon="135.872598">
 <ele>794.7</ele>
 <time>2020-03-24T12:53:38Z</time>
</trkpt>
<trkpt lat="35.187526" lon="135.872609">
 <ele>801.1</ele>
 <time>2020-03-24T12:53:39Z</time>
</trkpt>
<trkpt lat="35.187638" lon="135.872609">
 <ele>806.4</ele>
 <time>2020-03-24T12:53:39Z</time>
</trkpt>
<trkpt lat="35.187758" lon="135.872609">
 <ele>811.1</ele>
 <time>2020-03-24T12:53:39Z</time>
</trkpt>
<trkpt lat="35.187844" lon="135.872609">
 <ele>816</ele>
 <time>2020-03-24T12:53:39Z</time>
</trkpt>
<trkpt lat="35.187912" lon="135.872609">
 <ele>818.7</ele>
 <time>2020-03-24T12:53:39Z</time>
</trkpt>
<trkpt lat="35.187998" lon="135.872609">
 <ele>819.9</ele>
 <time>2020-03-24T12:53:39Z</time>
</trkpt>
<trkpt lat="35.188033" lon="135.872609">
 <ele>820.2</ele>
 <time>2020-03-24T12:53:39Z</time>
</trkpt>
<trkpt lat="35.188110" lon="135.872630">
 <ele>820.6</ele>
 <time>2020-03-24T12:53:39Z</time>
</trkpt>
<trkpt lat="35.188196" lon="135.872630">
 <ele>821.2</ele>
 <time>2020-03-24T12:53:39Z</time>
</trkpt>
<trkpt lat="35.188290" lon="135.872630">
 <ele>822.5</ele>
 <time>2020-03-24T12:53:39Z</time>
</trkpt>
<trkpt lat="35.188359" lon="135.872630">
 <ele>824.7</ele>
 <time>2020-03-24T12:53:40Z</time>
</trkpt>
<trkpt lat="35.188453" lon="135.872662">
 <ele>829.9</ele>
 <time>2020-03-24T12:53:40Z</time>
</trkpt>
<trkpt lat="35.188522" lon="135.872695">
 <ele>832.4</ele>
 <time>2020-03-24T12:53:40Z</time>
</trkpt>
<trkpt lat="35.188676" lon="135.872705">
 <ele>836.9</ele>
 <time>2020-03-24T12:53:40Z</time>
</trkpt>
<trkpt lat="35.188762" lon="135.872705">
 <ele>839.9</ele>
 <time>2020-03-24T12:53:40Z</time>
</trkpt>
<trkpt lat="35.188899" lon="135.872673">
 <ele>845.6</ele>
 <time>2020-03-24T12:53:40Z</time>
</trkpt>
<trkpt lat="35.189028" lon="135.872620">
 <ele>852.4</ele>
 <time>2020-03-24T12:53:40Z</time>
</trkpt>
<trkpt lat="35.189166" lon="135.872598">
 <ele>861.2</ele>
 <time>2020-03-24T12:53:40Z</time>
</trkpt>
<trkpt lat="35.189303" lon="135.872534">
 <ele>867.3</ele>
 <time>2020-03-24T12:53:40Z</time>
</trkpt>
<trkpt lat="35.189475" lon="135.872491">
 <ele>874.9</ele>
 <time>2020-03-24T12:53:40Z</time>
</trkpt>
<trkpt lat="35.189638" lon="135.872426">
 <ele>881.8</ele>
 <time>2020-03-24T12:53:41Z</time>
</trkpt>
<trkpt lat="35.189732" lon="135.872383">
 <ele>885.8</ele>
 <time>2020-03-24T12:53:41Z</time>
</trkpt>
<trkpt lat="35.189878" lon="135.872298">
 <ele>895.8</ele>
 <time>2020-03-24T12:53:41Z</time>
</trkpt>
<trkpt lat="35.190007" lon="135.872233">
 <ele>903.4</ele>
 <time>2020-03-24T12:53:41Z</time>
</trkpt>
<trkpt lat="35.190007" lon="135.872158">
 <ele>906.2</ele>
 <time>2020-03-24T12:53:41Z</time>
</trkpt>
<trkpt lat="35.190161" lon="135.872072">
 <ele>918.8</ele>
 <time>2020-03-24T12:53:41Z</time>
</trkpt>
<trkpt lat="35.190273" lon="135.872019">
 <ele>927.3</ele>
 <time>2020-03-24T12:53:41Z</time>
</trkpt>
<trkpt lat="35.190393" lon="135.871987">
 <ele>936.2</ele>
 <time>2020-03-24T12:53:41Z</time>
</trkpt>
<trkpt lat="35.190556" lon="135.871901">
 <ele>949.1</ele>
 <time>2020-03-24T12:53:41Z</time>
</trkpt>
<trkpt lat="35.190685" lon="135.871879">
 <ele>959.3</ele>
 <time>2020-03-24T12:53:41Z</time>
</trkpt>
<trkpt lat="35.190753" lon="135.871847">
 <ele>964.8</ele>
 <time>2020-03-24T12:53:42Z</time>
</trkpt>
<trkpt lat="35.190805" lon="135.871847">
 <ele>967.4</ele>
 <time>2020-03-24T12:53:42Z</time>
</trkpt>
<trkpt lat="35.190865" lon="135.871804">
 <ele>972.7</ele>
 <time>2020-03-24T12:53:42Z</time>
</trkpt>
<trkpt lat="35.190959" lon="135.871783">
 <ele>976.2</ele>
 <time>2020-03-24T12:53:42Z</time>
</trkpt>
<trkpt lat="35.191028" lon="135.871761">
 <ele>981</ele>
 <time>2020-03-24T12:53:42Z</time>
</trkpt>
<trkpt lat="35.191062" lon="135.871793">
 <ele>982.8</ele>
 <time>2020-03-24T12:53:42Z</time>
</trkpt>
<trkpt lat="35.191131" lon="135.871847">
 <ele>986.6</ele>
 <time>2020-03-24T12:53:42Z</time>
</trkpt>
<trkpt lat="35.191268" lon="135.871868">
 <ele>990.6</ele>
 <time>2020-03-24T12:53:42Z</time>
</trkpt>
<trkpt lat="35.191389" lon="135.871976">
 <ele>992</ele>
 <time>2020-03-24T12:53:42Z</time>
</trkpt>
<trkpt lat="35.191492" lon="135.872094">
 <ele>993</ele>
 <time>2020-03-24T12:53:42Z</time>
</trkpt>
<trkpt lat="35.191569" lon="135.872244">
 <ele>994</ele>
 <time>2020-03-24T12:53:43Z</time>
</trkpt>
<trkpt lat="35.191595" lon="135.872383">
 <ele>993.6</ele>
 <time>2020-03-24T12:53:43Z</time>
</trkpt>
<trkpt lat="35.191583" lon="135.872472">
 <ele>994.4</ele>
 <time>2020-03-24T12:53:43Z</time>
</trkpt>
<trkpt lat="35.191595" lon="135.872383">
 <ele>993.6</ele>
 <time>2020-03-24T12:53:43Z</time>
</trkpt>
<trkpt lat="35.191569" lon="135.872244">
 <ele>994</ele>
 <time>2020-03-24T12:53:43Z</time>
</trkpt>
<trkpt lat="35.191492" lon="135.872094">
 <ele>993</ele>
 <time>2020-03-24T12:53:43Z</time>
</trkpt>
<trkpt lat="35.191389" lon="135.871976">
 <ele>992</ele>
 <time>2020-03-24T12:53:43Z</time>
</trkpt>
<trkpt lat="35.191268" lon="135.871868">
 <ele>990.6</ele>
 <time>2020-03-24T12:53:43Z</time>
</trkpt>
<trkpt lat="35.191131" lon="135.871847">
 <ele>986.6</ele>
 <time>2020-03-24T12:53:43Z</time>
</trkpt>
<trkpt lat="35.191062" lon="135.871793">
 <ele>982.8</ele>
 <time>2020-03-24T12:53:44Z</time>
</trkpt>
<trkpt lat="35.191028" lon="135.871761">
 <ele>981</ele>
 <time>2020-03-24T12:53:44Z</time>
</trkpt>
<trkpt lat="35.190959" lon="135.871783">
 <ele>976.2</ele>
 <time>2020-03-24T12:53:44Z</time>
</trkpt>
<trkpt lat="35.190865" lon="135.871804">
 <ele>972.7</ele>
 <time>2020-03-24T12:53:44Z</time>
</trkpt>
<trkpt lat="35.190805" lon="135.871847">
 <ele>967.4</ele>
 <time>2020-03-24T12:53:44Z</time>
</trkpt>
<trkpt lat="35.190753" lon="135.871847">
 <ele>964.8</ele>
 <time>2020-03-24T12:53:44Z</time>
</trkpt>
<trkpt lat="35.190685" lon="135.871879">
 <ele>959.3</ele>
 <time>2020-03-24T12:53:44Z</time>
</trkpt>
<trkpt lat="35.190556" lon="135.871901">
 <ele>949.1</ele>
 <time>2020-03-24T12:53:44Z</time>
</trkpt>
<trkpt lat="35.190393" lon="135.871987">
 <ele>936.2</ele>
 <time>2020-03-24T12:53:44Z</time>
</trkpt>
<trkpt lat="35.190273" lon="135.872019">
 <ele>927.3</ele>
 <time>2020-03-24T12:53:44Z</time>
</trkpt>
<trkpt lat="35.190161" lon="135.872072">
 <ele>918.8</ele>
 <time>2020-03-24T12:53:45Z</time>
</trkpt>
<trkpt lat="35.190007" lon="135.872158">
 <ele>906.2</ele>
 <time>2020-03-24T12:53:45Z</time>
</trkpt>
<trkpt lat="35.190007" lon="135.872233">
 <ele>903.4</ele>
 <time>2020-03-24T12:53:45Z</time>
</trkpt>
<trkpt lat="35.189878" lon="135.872298">
 <ele>895.8</ele>
 <time>2020-03-24T12:53:45Z</time>
</trkpt>
<trkpt lat="35.189732" lon="135.872383">
 <ele>885.8</ele>
 <time>2020-03-24T12:53:45Z</time>
</trkpt>
<trkpt lat="35.189638" lon="135.872426">
 <ele>881.8</ele>
 <time>2020-03-24T12:53:45Z</time>
</trkpt>
<trkpt lat="35.189475" lon="135.872491">
 <ele>874.9</ele>
 <time>2020-03-24T12:53:45Z</time>
</trkpt>
<trkpt lat="35.189303" lon="135.872534">
 <ele>867.3</ele>
 <time>2020-03-24T12:53:45Z</time>
</trkpt>
<trkpt lat="35.189166" lon="135.872598">
 <ele>861.2</ele>
 <time>2020-03-24T12:53:45Z</time>
</trkpt>
<trkpt lat="35.189028" lon="135.872620">
 <ele>852.4</ele>
 <time>2020-03-24T12:53:45Z</time>
</trkpt>
<trkpt lat="35.188899" lon="135.872673">
 <ele>845.6</ele>
 <time>2020-03-24T12:53:46Z</time>
</trkpt>
<trkpt lat="35.188762" lon="135.872705">
 <ele>839.9</ele>
 <time>2020-03-24T12:53:46Z</time>
</trkpt>
<trkpt lat="35.188676" lon="135.872705">
 <ele>836.9</ele>
 <time>2020-03-24T12:53:46Z</time>
</trkpt>
<trkpt lat="35.188522" lon="135.872695">
 <ele>832.4</ele>
 <time>2020-03-24T12:53:46Z</time>
</trkpt>
<trkpt lat="35.188453" lon="135.872662">
 <ele>829.9</ele>
 <time>2020-03-24T12:53:46Z</time>
</trkpt>
<trkpt lat="35.188359" lon="135.872630">
 <ele>824.7</ele>
 <time>2020-03-24T12:53:46Z</time>
</trkpt>
<trkpt lat="35.188290" lon="135.872630">
 <ele>822.5</ele>
 <time>2020-03-24T12:53:46Z</time>
</trkpt>
<trkpt lat="35.188196" lon="135.872630">
 <ele>821.2</ele>
 <time>2020-03-24T12:53:46Z</time>
</trkpt>
<trkpt lat="35.188110" lon="135.872630">
 <ele>820.6</ele>
 <time>2020-03-24T12:53:46Z</time>
</trkpt>
<trkpt lat="35.188033" lon="135.872609">
 <ele>820.2</ele>
 <time>2020-03-24T12:53:46Z</time>
</trkpt>
<trkpt lat="35.187998" lon="135.872609">
 <ele>819.9</ele>
 <time>2020-03-24T12:53:47Z</time>
</trkpt>
<trkpt lat="35.187912" lon="135.872609">
 <ele>818.7</ele>
 <time>2020-03-24T12:53:47Z</time>
</trkpt>
<trkpt lat="35.187844" lon="135.872609">
 <ele>816</ele>
 <time>2020-03-24T12:53:47Z</time>
</trkpt>
<trkpt lat="35.187758" lon="135.872609">
 <ele>811.1</ele>
 <time>2020-03-24T12:53:47Z</time>
</trkpt>
<trkpt lat="35.187638" lon="135.872609">
 <ele>806.4</ele>
 <time>2020-03-24T12:53:47Z</time>
</trkpt>
<trkpt lat="35.187526" lon="135.872609">
 <ele>801.1</ele>
 <time>2020-03-24T12:53:47Z</time>
</trkpt>
<trkpt lat="35.187406" lon="135.872598">
 <ele>794.7</ele>
 <time>2020-03-24T12:53:47Z</time>
</trkpt>
<trkpt lat="35.187355" lon="135.872577">
 <ele>792.5</ele>
 <time>2020-03-24T12:53:47Z</time>
</trkpt>
<trkpt lat="35.187277" lon="135.872555">
 <ele>788.6</ele>
 <time>2020-03-24T12:53:47Z</time>
</trkpt>
<trkpt lat="35.187209" lon="135.872544">
 <ele>786.4</ele>
 <time>2020-03-24T12:53:48Z</time>
</trkpt>
<trkpt lat="35.187071" lon="135.872512">
 <ele>781.4</ele>
 <time>2020-03-24T12:53:48Z</time>
</trkpt>
<trkpt lat="35.186968" lon="135.872469">
 <ele>776.3</ele>
 <time>2020-03-24T12:53:48Z</time>
</trkpt>
<trkpt lat="35.186831" lon="135.872426">
 <ele>769.3</ele>
 <time>2020-03-24T12:53:48Z</time>
</trkpt>
<trkpt lat="35.186711" lon="135.872405">
 <ele>769.9</ele>
 <time>2020-03-24T12:53:48Z</time>
</trkpt>
<trkpt lat="35.186599" lon="135.872383">
 <ele>768.8</ele>
 <time>2020-03-24T12:53:48Z</time>
</trkpt>
<trkpt lat="35.186462" lon="135.872373">
 <ele>767.6</ele>
 <time>2020-03-24T12:53:48Z</time>
</trkpt>
<trkpt lat="35.186307" lon="135.872319">
 <ele>763.6</ele>
 <time>2020-03-24T12:53:48Z</time>
</trkpt>
<trkpt lat="35.186213" lon="135.872308">
 <ele>761.1</ele>
 <time>2020-03-24T12:53:48Z</time>
</trkpt>
<trkpt lat="35.186016" lon="135.872287">
 <ele>755.6</ele>
 <time>2020-03-24T12:53:48Z</time>
</trkpt>
<trkpt lat="35.185904" lon="135.872244">
 <ele>753.7</ele>
 <time>2020-03-24T12:53:49Z</time>
</trkpt>
<trkpt lat="35.185767" lon="135.872265">
 <ele>753.2</ele>
 <time>2020-03-24T12:53:49Z</time>
</trkpt>
<trkpt lat="35.185689" lon="135.872265">
 <ele>751.2</ele>
 <time>2020-03-24T12:53:49Z</time>
</trkpt>
<trkpt lat="35.185621" lon="135.872341">
 <ele>750.2</ele>
 <time>2020-03-24T12:53:49Z</time>
</trkpt>
<trkpt lat="35.185492" lon="135.872459">
 <ele>745.8</ele>
 <time>2020-03-24T12:53:49Z</time>
</trkpt>
<trkpt lat="35.185415" lon="135.872523">
 <ele>739.8</ele>
 <time>2020-03-24T12:53:49Z</time>
</trkpt>
<trkpt lat="35.185286" lon="135.872609">
 <ele>734.8</ele>
 <time>2020-03-24T12:53:49Z</time>
</trkpt>
<trkpt lat="35.185183" lon="135.872673">
 <ele>729.7</ele>
 <time>2020-03-24T12:53:49Z</time>
</trkpt>
<trkpt lat="35.185071" lon="135.872652">
 <ele>725.6</ele>
 <time>2020-03-24T12:53:49Z</time>
</trkpt>
<trkpt lat="35.184951" lon="135.872652">
 <ele>722.8</ele>
 <time>2020-03-24T12:53:50Z</time>
</trkpt>
<trkpt lat="35.184831" lon="135.872587">
 <ele>721.7</ele>
 <time>2020-03-24T12:53:50Z</time>
</trkpt>
<trkpt lat="35.184702" lon="135.872523">
 <ele>718.6</ele>
 <time>2020-03-24T12:53:50Z</time>
</trkpt>
<trkpt lat="35.184617" lon="135.872501">
 <ele>717.4</ele>
 <time>2020-03-24T12:53:50Z</time>
</trkpt>
<trkpt lat="35.184514" lon="135.872491">
 <ele>715.2</ele>
 <time>2020-03-24T12:53:50Z</time>
</trkpt>
<trkpt lat="35.184402" lon="135.872491">
 <ele>713.7</ele>
 <time>2020-03-24T12:53:50Z</time>
</trkpt>
<trkpt lat="35.184308" lon="135.872523">
 <ele>710.5</ele>
 <time>2020-03-24T12:53:50Z</time>
</trkpt>
<trkpt lat="35.184230" lon="135.872587">
 <ele>709.8</ele>
 <time>2020-03-24T12:53:50Z</time>
</trkpt>
<trkpt lat="35.184136" lon="135.872716">
 <ele>707.4</ele>
 <time>2020-03-24T12:53:50Z</time>
</trkpt>
<trkpt lat="35.184016" lon="135.872780">
 <ele>704.5</ele>
 <time>2020-03-24T12:53:50Z</time>
</trkpt>
<trkpt lat="35.183878" lon="135.872845">
 <ele>704.5</ele>
 <time>2020-03-24T12:53:51Z</time>
</trkpt>
<trkpt lat="35.183655" lon="135.872974">
 <ele>698.8</ele>
 <time>2020-03-24T12:53:51Z</time>
</trkpt>
<trkpt lat="35.183544" lon="135.873027">
 <ele>694.3</ele>
 <time>2020-03-24T12:53:51Z</time>
</trkpt>
<trkpt lat="35.183475" lon="135.873049">
 <ele>694.4</ele>
 <time>2020-03-24T12:53:51Z</time>
</trkpt>
<trkpt lat="35.183381" lon="135.873081">
 <ele>690.9</ele>
 <time>2020-03-24T12:53:51Z</time>
</trkpt>
<trkpt lat="35.183295" lon="135.873081">
 <ele>690.1</ele>
 <time>2020-03-24T12:53:51Z</time>
</trkpt>
<trkpt lat="35.183218" lon="135.873102">
 <ele>689.2</ele>
 <time>2020-03-24T12:53:51Z</time>
</trkpt>
<trkpt lat="35.183149" lon="135.873102">
 <ele>687.8</ele>
 <time>2020-03-24T12:53:51Z</time>
</trkpt>
<trkpt lat="35.183003" lon="135.873134">
 <ele>682.3</ele>
 <time>2020-03-24T12:53:51Z</time>
</trkpt>
<trkpt lat="35.182883" lon="135.873156">
 <ele>676.3</ele>
 <time>2020-03-24T12:53:51Z</time>
</trkpt>
<trkpt lat="35.182797" lon="135.873220">
 <ele>675.6</ele>
 <time>2020-03-24T12:53:52Z</time>
</trkpt>
<trkpt lat="35.182763" lon="135.873306">
 <ele>674.8</ele>
 <time>2020-03-24T12:53:52Z</time>
</trkpt>
<trkpt lat="35.182720" lon="135.873403">
 <ele>673.9</ele>
 <time>2020-03-24T12:53:52Z</time>
</trkpt>
<trkpt lat="35.182677" lon="135.873521">
 <ele>672.3</ele>
 <time>2020-03-24T12:53:52Z</time>
</trkpt>
<trkpt lat="35.182634" lon="135.873574">
 <ele>671.3</ele>
 <time>2020-03-24T12:53:52Z</time>
</trkpt>
<trkpt lat="35.182539" lon="135.873574">
 <ele>670.6</ele>
 <time>2020-03-24T12:53:52Z</time>
</trkpt>
<trkpt lat="35.182497" lon="135.873628">
 <ele>666.4</ele>
 <time>2020-03-24T12:53:52Z</time>
</trkpt>
<trkpt lat="35.182497" lon="135.873714">
 <ele>664.3</ele>
 <time>2020-03-24T12:53:52Z</time>
</trkpt>
<trkpt lat="35.182539" lon="135.873767">
 <ele>663.7</ele>
 <time>2020-03-24T12:53:52Z</time>
</trkpt>
<trkpt lat="35.182608" lon="135.873789">
 <ele>663.6</ele>
 <time>2020-03-24T12:53:52Z</time>
</trkpt>
<trkpt lat="35.182634" lon="135.873896">
 <ele>658.2</ele>
 <time>2020-03-24T12:53:53Z</time>
</trkpt>
<trkpt lat="35.182600" lon="135.873928">
 <ele>658.4</ele>
 <time>2020-03-24T12:53:53Z</time>
</trkpt>
<trkpt lat="35.182548" lon="135.874025">
 <ele>654.1</ele>
 <time>2020-03-24T12:53:53Z</time>
</trkpt>
<trkpt lat="35.182497" lon="135.874079">
 <ele>653.4</ele>
 <time>2020-03-24T12:53:53Z</time>
</trkpt>
<trkpt lat="35.182471" lon="135.874143">
 <ele>650.2</ele>
 <time>2020-03-24T12:53:53Z</time>
</trkpt>
<trkpt lat="35.182411" lon="135.874186">
 <ele>649.4</ele>
 <time>2020-03-24T12:53:53Z</time>
</trkpt>
<trkpt lat="35.182368" lon="135.874272">
 <ele>646.8</ele>
 <time>2020-03-24T12:53:53Z</time>
</trkpt>
<trkpt lat="35.182376" lon="135.874325">
 <ele>645.2</ele>
 <time>2020-03-24T12:53:53Z</time>
</trkpt>
<trkpt lat="35.182419" lon="135.874422">
 <ele>641</ele>
 <time>2020-03-24T12:53:53Z</time>
</trkpt>
<trkpt lat="35.182368" lon="135.874497">
 <ele>638</ele>
 <time>2020-03-24T12:53:53Z</time>
</trkpt>
<trkpt lat="35.182299" lon="135.874572">
 <ele>636.3</ele>
 <time>2020-03-24T12:53:54Z</time>
</trkpt>
<trkpt lat="35.182282" lon="135.874669">
 <ele>634</ele>
 <time>2020-03-24T12:53:54Z</time>
</trkpt>
<trkpt lat="35.182196" lon="135.874755">
 <ele>631.7</ele>
 <time>2020-03-24T12:53:54Z</time>
</trkpt>
<trkpt lat="35.182102" lon="135.874830">
 <ele>628.8</ele>
 <time>2020-03-24T12:53:54Z</time>
</trkpt>
<trkpt lat="35.182162" lon="135.874905">
 <ele>627</ele>
 <time>2020-03-24T12:53:54Z</time>
</trkpt>
<trkpt lat="35.182230" lon="135.874948">
 <ele>623.2</ele>
 <time>2020-03-24T12:53:54Z</time>
</trkpt>
<trkpt lat="35.182325" lon="135.874926">
 <ele>621.5</ele>
 <time>2020-03-24T12:53:54Z</time>
</trkpt>
<trkpt lat="35.182454" lon="135.874873">
 <ele>618.9</ele>
 <time>2020-03-24T12:53:54Z</time>
</trkpt>
<trkpt lat="35.182591" lon="135.874808">
 <ele>616.6</ele>
 <time>2020-03-24T12:53:54Z</time>
</trkpt>
<trkpt lat="35.182703" lon="135.874733">
 <ele>614</ele>
 <time>2020-03-24T12:53:54Z</time>
</trkpt>
<trkpt lat="35.182806" lon="135.874679">
 <ele>611</ele>
 <time>2020-03-24T12:53:55Z</time>
</trkpt>
<trkpt lat="35.182866" lon="135.874669">
 <ele>608.4</ele>
 <time>2020-03-24T12:53:55Z</time>
</trkpt>
<trkpt lat="35.182917" lon="135.874722">
 <ele>606.4</ele>
 <time>2020-03-24T12:53:55Z</time>
</trkpt>
<trkpt lat="35.182969" lon="135.874797">
 <ele>606.1</ele>
 <time>2020-03-24T12:53:55Z</time>
</trkpt>
<trkpt lat="35.182951" lon="135.874883">
 <ele>602.2</ele>
 <time>2020-03-24T12:53:55Z</time>
</trkpt>
<trkpt lat="35.182883" lon="135.874926">
 <ele>599.7</ele>
 <time>2020-03-24T12:53:55Z</time>
</trkpt>
<trkpt lat="35.182857" lon="135.874991">
 <ele>598.5</ele>
 <time>2020-03-24T12:53:55Z</time>
</trkpt>
<trkpt lat="35.182874" lon="135.875076">
 <ele>603</ele>
 <time>2020-03-24T12:53:55Z</time>
</trkpt>
<trkpt lat="35.182909" lon="135.875152">
 <ele>599.8</ele>
 <time>2020-03-24T12:53:55Z</time>
</trkpt>
<trkpt lat="35.182960" lon="135.875227">
 <ele>597.7</ele>
 <time>2020-03-24T12:53:56Z</time>
</trkpt>
<trkpt lat="35.182994" lon="135.875323">
 <ele>596.4</ele>
 <time>2020-03-24T12:53:56Z</time>
</trkpt>
<trkpt lat="35.182994" lon="135.875420">
 <ele>593.5</ele>
 <time>2020-03-24T12:53:56Z</time>
</trkpt>
<trkpt lat="35.182994" lon="135.875527">
 <ele>589.9</ele>
 <time>2020-03-24T12:53:56Z</time>
</trkpt>
<trkpt lat="35.182960" lon="135.875581">
 <ele>587.6</ele>
 <time>2020-03-24T12:53:56Z</time>
</trkpt>
<trkpt lat="35.182917" lon="135.875581">
 <ele>586.5</ele>
 <time>2020-03-24T12:53:56Z</time>
</trkpt>
<trkpt lat="35.182866" lon="135.875538">
 <ele>585.1</ele>
 <time>2020-03-24T12:53:56Z</time>
</trkpt>
<trkpt lat="35.182797" lon="135.875548">
 <ele>581.2</ele>
 <time>2020-03-24T12:53:57Z</time>
</trkpt>
<trkpt lat="35.182754" lon="135.875602">
 <ele>577.9</ele>
 <time>2020-03-24T12:53:57Z</time>
</trkpt>
<trkpt lat="35.182745" lon="135.875709">
 <ele>574.8</ele>
 <time>2020-03-24T12:53:57Z</time>
</trkpt>
<trkpt lat="35.182728" lon="135.875763">
 <ele>573.9</ele>
 <time>2020-03-24T12:53:57Z</time>
</trkpt>
<trkpt lat="35.182660" lon="135.875827">
 <ele>570.2</ele>
 <time>2020-03-24T12:53:57Z</time>
</trkpt>
<trkpt lat="35.182539" lon="135.875849">
 <ele>572.1</ele>
 <time>2020-03-24T12:53:57Z</time>
</trkpt>
<trkpt lat="35.182436" lon="135.875903">
 <ele>569.4</ele>
 <time>2020-03-24T12:53:57Z</time>
</trkpt>
<trkpt lat="35.182316" lon="135.875967">
 <ele>568.7</ele>
 <time>2020-03-24T12:53:57Z</time>
</trkpt>
<trkpt lat="35.182222" lon="135.876021">
 <ele>568.1</ele>
 <time>2020-03-24T12:53:58Z</time>
</trkpt>
<trkpt lat="35.182119" lon="135.876096">
 <ele>564.8</ele>
 <time>2020-03-24T12:53:58Z</time>
</trkpt>
<trkpt lat="35.182076" lon="135.876128">
 <ele>562.9</ele>
 <time>2020-03-24T12:53:58Z</time>
</trkpt>
<trkpt lat="35.182016" lon="135.876171">
 <ele>561.7</ele>
 <time>2020-03-24T12:53:58Z</time>
</trkpt>
<trkpt lat="35.181973" lon="135.876257">
 <ele>555.8</ele>
 <time>2020-03-24T12:53:58Z</time>
</trkpt>
<trkpt lat="35.181904" lon="135.876310">
 <ele>552.9</ele>
 <time>2020-03-24T12:53:58Z</time>
</trkpt>
<trkpt lat="35.181836" lon="135.876332">
 <ele>548.8</ele>
 <time>2020-03-24T12:53:58Z</time>
</trkpt>
<trkpt lat="35.181758" lon="135.876353">
 <ele>547.7</ele>
 <time>2020-03-24T12:53:59Z</time>
</trkpt>
<trkpt lat="35.181673" lon="135.876385">
 <ele>542.9</ele>
 <time>2020-03-24T12:53:59Z</time>
</trkpt>
<trkpt lat="35.181587" lon="135.876407">
 <ele>541.2</ele>
 <time>2020-03-24T12:53:59Z</time>
</trkpt>
<trkpt lat="35.181492" lon="135.876439">
 <ele>538.1</ele>
 <time>2020-03-24T12:53:59Z</time>
</trkpt>
<trkpt lat="35.181406" lon="135.876439">
 <ele>536.2</ele>
 <time>2020-03-24T12:53:59Z</time>
</trkpt>
<trkpt lat="35.181346" lon="135.876439">
 <ele>534.5</ele>
 <time>2020-03-24T12:53:59Z</time>
</trkpt>
<trkpt lat="35.181312" lon="135.876503">
 <ele>531.5</ele>
 <time>2020-03-24T12:53:59Z</time>
</trkpt>
<trkpt lat="35.181303" lon="135.876578">
 <ele>530.4</ele>
 <time>2020-03-24T12:53:59Z</time>
</trkpt>
<trkpt lat="35.181355" lon="135.876654">
 <ele>529</ele>
 <time>2020-03-24T12:54:00Z</time>
</trkpt>
<trkpt lat="35.181432" lon="135.876729">
 <ele>525.5</ele>
 <time>2020-03-24T12:54:00Z</time>
</trkpt>
<trkpt lat="35.181381" lon="135.876825">
 <ele>522.2</ele>
 <time>2020-03-24T12:54:00Z</time>
</trkpt>
<trkpt lat="35.181286" lon="135.876900">
 <ele>519.1</ele>
 <time>2020-03-24T12:54:00Z</time>
</trkpt>
<trkpt lat="35.181200" lon="135.876954">
 <ele>517.1</ele>
 <time>2020-03-24T12:54:00Z</time>
</trkpt>
<trkpt lat="35.181140" lon="135.877018">
 <ele>513.6</ele>
 <time>2020-03-24T12:54:00Z</time>
</trkpt>
<trkpt lat="35.181063" lon="135.877093">
 <ele>513</ele>
 <time>2020-03-24T12:54:00Z</time>
</trkpt>
<trkpt lat="35.180960" lon="135.877169">
 <ele>510.9</ele>
 <time>2020-03-24T12:54:01Z</time>
</trkpt>
<trkpt lat="35.180900" lon="135.877265">
 <ele>506.1</ele>
 <time>2020-03-24T12:54:01Z</time>
</trkpt>
<trkpt lat="35.180788" lon="135.877340">
 <ele>500.9</ele>
 <time>2020-03-24T12:54:01Z</time>
</trkpt>
<trkpt lat="35.180677" lon="135.877405">
 <ele>497.1</ele>
 <time>2020-03-24T12:54:01Z</time>
</trkpt>
<trkpt lat="35.180600" lon="135.877426">
 <ele>494.4</ele>
 <time>2020-03-24T12:54:01Z</time>
</trkpt>
<trkpt lat="35.180471" lon="135.877437">
 <ele>489.6</ele>
 <time>2020-03-24T12:54:01Z</time>
</trkpt>
<trkpt lat="35.180394" lon="135.877426">
 <ele>488.4</ele>
 <time>2020-03-24T12:54:01Z</time>
</trkpt>
<trkpt lat="35.180316" lon="135.877319">
 <ele>488</ele>
 <time>2020-03-24T12:54:01Z</time>
</trkpt>
<trkpt lat="35.180239" lon="135.877244">
 <ele>486.3</ele>
 <time>2020-03-24T12:54:02Z</time>
</trkpt>
<trkpt lat="35.180188" lon="135.877190">
 <ele>485</ele>
 <time>2020-03-24T12:54:02Z</time>
</trkpt>
<trkpt lat="35.180093" lon="135.877201">
 <ele>484.6</ele>
 <time>2020-03-24T12:54:02Z</time>
</trkpt>
<trkpt lat="35.179947" lon="135.877276">
 <ele>483.5</ele>
 <time>2020-03-24T12:54:02Z</time>
</trkpt>
<trkpt lat="35.179844" lon="135.877415">
 <ele>482.2</ele>
 <time>2020-03-24T12:54:02Z</time>
</trkpt>
<trkpt lat="35.179776" lon="135.877565">
 <ele>481.5</ele>
 <time>2020-03-24T12:54:02Z</time>
</trkpt>
<trkpt lat="35.179733" lon="135.877705">
 <ele>480.4</ele>
 <time>2020-03-24T12:54:02Z</time>
</trkpt>
<trkpt lat="35.179698" lon="135.877866">
 <ele>479.6</ele>
 <time>2020-03-24T12:54:03Z</time>
</trkpt>
<trkpt lat="35.179664" lon="135.878016">
 <ele>478.1</ele>
 <time>2020-03-24T12:54:03Z</time>
</trkpt>
<trkpt lat="35.179587" lon="135.878166">
 <ele>477.5</ele>
 <time>2020-03-24T12:54:03Z</time>
</trkpt>
<trkpt lat="35.179527" lon="135.878252">
 <ele>476.6</ele>
 <time>2020-03-24T12:54:03Z</time>
</trkpt>
<trkpt lat="35.179441" lon="135.878392">
 <ele>475.8</ele>
 <time>2020-03-24T12:54:03Z</time>
</trkpt>
<trkpt lat="35.179355" lon="135.878585">
 <ele>474.3</ele>
 <time>2020-03-24T12:54:03Z</time>
</trkpt>
<trkpt lat="35.179244" lon="135.878735">
 <ele>474.5</ele>
 <time>2020-03-24T12:54:03Z</time>
</trkpt>
<trkpt lat="35.179132" lon="135.878907">
 <ele>472</ele>
 <time>2020-03-24T12:54:04Z</time>
</trkpt>
<trkpt lat="35.179029" lon="135.879100">
 <ele>469.3</ele>
 <time>2020-03-24T12:54:04Z</time>
</trkpt>
<trkpt lat="35.178960" lon="135.879228">
 <ele>466.9</ele>
 <time>2020-03-24T12:54:04Z</time>
</trkpt>
<trkpt lat="35.178917" lon="135.879314">
 <ele>466</ele>
 <time>2020-03-24T12:54:04Z</time>
</trkpt>
<trkpt lat="35.178883" lon="135.879411">
 <ele>464.6</ele>
 <time>2020-03-24T12:54:04Z</time>
</trkpt>
<trkpt lat="35.178840" lon="135.879572">
 <ele>462.2</ele>
 <time>2020-03-24T12:54:04Z</time>
</trkpt>
<trkpt lat="35.178806" lon="135.879711">
 <ele>460.5</ele>
 <time>2020-03-24T12:54:04Z</time>
</trkpt>
<trkpt lat="35.178746" lon="135.879840">
 <ele>459</ele>
 <time>2020-03-24T12:54:04Z</time>
</trkpt>
<trkpt lat="35.178694" lon="135.879969">
 <ele>457.1</ele>
 <time>2020-03-24T12:54:05Z</time>
</trkpt>
<trkpt lat="35.178634" lon="135.880055">
 <ele>456.1</ele>
 <time>2020-03-24T12:54:05Z</time>
</trkpt>
<trkpt lat="35.178557" lon="135.880140">
 <ele>454.6</ele>
 <time>2020-03-24T12:54:05Z</time>
</trkpt>
<trkpt lat="35.178557" lon="135.880226">
 <ele>453.2</ele>
 <time>2020-03-24T12:54:05Z</time>
</trkpt>
<trkpt lat="35.178617" lon="135.880258">
 <ele>451.5</ele>
 <time>2020-03-24T12:54:05Z</time>
</trkpt>
<trkpt lat="35.178677" lon="135.880237">
 <ele>451.2</ele>
 <time>2020-03-24T12:54:05Z</time>
</trkpt>
<trkpt lat="35.178746" lon="135.880183">
 <ele>450.4</ele>
 <time>2020-03-24T12:54:05Z</time>
</trkpt>
<trkpt lat="35.178780" lon="135.880098">
 <ele>449.4</ele>
 <time>2020-03-24T12:54:05Z</time>
</trkpt>
<trkpt lat="35.178814" lon="135.880022">
 <ele>449</ele>
 <time>2020-03-24T12:54:06Z</time>
</trkpt>
<trkpt lat="35.178857" lon="135.879947">
 <ele>448.6</ele>
 <time>2020-03-24T12:54:06Z</time>
</trkpt>
<trkpt lat="35.178892" lon="135.879894">
 <ele>447.7</ele>
 <time>2020-03-24T12:54:06Z</time>
</trkpt>
<trkpt lat="35.178943" lon="135.879883">
 <ele>447.6</ele>
 <time>2020-03-24T12:54:06Z</time>
</trkpt>
<trkpt lat="35.179003" lon="135.879894">
 <ele>447.1</ele>
 <time>2020-03-24T12:54:06Z</time>
</trkpt>
<trkpt lat="35.179046" lon="135.879958">
 <ele>446.7</ele>
 <time>2020-03-24T12:54:06Z</time>
</trkpt>
<trkpt lat="35.179038" lon="135.880055">
 <ele>445.7</ele>
 <time>2020-03-24T12:54:06Z</time>
</trkpt>
<trkpt lat="35.179003" lon="135.880162">
 <ele>444.1</ele>
 <time>2020-03-24T12:54:07Z</time>
</trkpt>
<trkpt lat="35.178943" lon="135.880323">
 <ele>441.4</ele>
 <time>2020-03-24T12:54:07Z</time>
</trkpt>
<trkpt lat="35.178883" lon="135.880430">
 <ele>439.9</ele>
 <time>2020-03-24T12:54:07Z</time>
</trkpt>
<trkpt lat="35.178780" lon="135.880570">
 <ele>437.9</ele>
 <time>2020-03-24T12:54:07Z</time>
</trkpt>
<trkpt lat="35.178703" lon="135.880688">
 <ele>435.6</ele>
 <time>2020-03-24T12:54:07Z</time>
</trkpt>
<trkpt lat="35.178574" lon="135.880827">
 <ele>432.7</ele>
 <time>2020-03-24T12:54:07Z</time>
</trkpt>
<trkpt lat="35.178480" lon="135.880945">
 <ele>429.2</ele>
 <time>2020-03-24T12:54:07Z</time>
</trkpt>
<trkpt lat="35.178308" lon="135.881074">
 <ele>428.2</ele>
 <time>2020-03-24T12:54:07Z</time>
</trkpt>
</trkseg>
</trk>
</gpx>

